Dewpoint
73 72 73 72 72 74 70 67 54 58 55 50 52 53 50 58 58 55 56 56 56 58 57 57 55 55 57 57 59 59 60 54 56 47 46 59 69 70 71 73 73 73 73 73 74 74 75 76 76 75 75 75 75 75 75 75 75 75 75 74 74 74 74 74 75 76 75 75 76 76 76 75 75 75 76 75 75 75 76 76 76 76 75 76 76 76 76 76 76 76 76 76 76 76 75 74 75
70 70 72 71 73 69 63 66 56 55 53 50 51 56 53 57 53 53 52 54 54 53 55 56 57 60 60 60 60 57 58 60 61 61 64 67 69 70 72 72 72 72 73 73 74 74 74 75 76 75 75 75 75 75 75 75 75 75 75 74 74 74 74 74 75 76 76 75 75 75 75 75 75 75 75 75 76 76 76 76 76 75 75 76 76 76 76 76 76 76 76 76 76 76 76 75 75
68 68 70 73 74 68 66 64 53 52 49 48 50 54 58 55 50 54 56 54 53 54 55 56 57 58 56 59 57 58 56 61 61 63 65 68 67 69 72 72 73 73 73 73 74 74 74 75 76 75 75 75 75 75 75 75 75 75 74 75 74 74 75 75 75 76 75 75 75 75 75 75 75 75 75 75 75 76 76 76 76 76 75 75 76 76 76 76 76 76 76 76 76 76 75 76 76
72 74 72 71 66 68 60 60 57 52 49 50 50 55 56 52 51 54 56 56 55 53 54 53 54 59 58 57 58 59 59 60 62 64 65 66 67 70 71 72 73 73 73 73 74 74 74 75 76 75 75 75 75 75 75 75 75 75 75 75 75 75 75 75 75 76 75 75 75 75 75 75 75 75 75 75 75 75 75 75 75 75 75 75 76 75 75 75 76 76 76 76 76 76 76 76 75
74 76 76 70 65 60 60 56 57 55 49 51 48 53 57 52 53 57 58 51 52 50 51 52 52 56 59 58 57 58 59 62 63 65 65 67 69 69 71 72 72 72 72 73 74 74 74 75 76 75 75 75 75 75 75 75 76 76 75 75 75 75 75 75 75 76 75 75 75 75 75 75 76 76 75 75 75 75 75 75 75 75 75 75 75 75 75 75 75 76 76 76 76 76 76 75 75
74 74 76 71 63 67 60 55 53 54 56 56 54 50 54 54 57 58 56 54 55 53 50 53 51 52 53 56 60 60 61 60 63 64 65 66 68 70 71 72 71 71 72 73 73 74 74 75 75 75 74 74 75 75 75 75 76 76 75 75 75 75 75 74 75 75 75 75 75 76 76 76 76 76 75 75 75 75 75 75 75 75 75 75 75 75 75 75 75 75 75 75 75 75 75 75 75
73 72 72 69 66 66 55 55 55 55 55 59 56 54 54 56 57 56 53 52 52 53 53 53 54 54 55 58 60 62 63 63 63 64 66 67 69 69 70 70 71 72 72 73 73 74 74 75 75 75 75 75 75 75 75 75 75 75 75 75 75 75 75 74 75 75 75 75 76 75 75 75 75 76 76 75 76 75 75 75 75 75 75 75 75 75 75 75 75 75 75 75 74 74 75 75 75
74 70 68 62 59 58 55 56 56 56 55 58 58 58 57 60 60 55 52 51 51 51 53 53 54 54 54 57 58 62 63 62 64 66 66 67 68 68 70 71 71 72 72 73 73 74 75 75 75 75 75 75 75 76 76 75 76 75 75 75 75 75 75 75 75 75 74 75 75 75 75 75 75 75 75 75 76 76 75 75 75 75 75 75 75 75 74 74 74 74 74 74 74 74 74 75 75
74 71 70 61 57 56 54 55 57 61 59 59 58 62 65 60 62 58 55 55 53 54 53 54 55 54 56 58 59 61 62 63 65 68 66 67 68 69 70 71 72 72 73 73 74 74 75 75 75 75 75 75 75 75 75 76 75 75 74 74 74 75 75 75 75 75 74 75 75 75 75 75 75 75 75 75 75 75 75 75 75 75 75 75 75 75 75 74 74 73 73 73 73 73 74 74 75
71 69 61 60 58 52 53 54 53 56 57 58 60 59 62 60 61 58 55 55 55 55 56 55 56 56 58 59 60 61 63 64 65 65 66 67 68 69 70 71 72 72 73 73 74 74 74 75 75 75 75 74 75 76 75 75 75 74 75 75 75 75 75 75 74 74 75 75 75 75 75 75 75 75 74 75 75 75 76 75 75 75 75 75 75 75 75 74 74 73 73 73 72 72 73 73 74
65 69 67 59 55 52 51 53 57 58 59 58 62 63 63 62 63 56 56 55 54 54 54 55 55 56 57 58 61 64 64 64 64 64 67 68 68 68 70 72 73 73 73 74 74 74 74 74 75 74 75 75 75 75 75 75 75 75 74 74 75 75 75 75 74 75 75 75 75 75 75 75 75 75 75 75 75 75 75 75 75 75 75 75 75 75 75 74 74 73 73 73 73 72 72 73 73
63 64 64 56 55 53 55 54 56 58 57 57 58 61 64 62 62 54 54 54 54 53 53 54 53 56 57 58 61 63 63 64 64 65 67 68 68 69 71 72 72 73 73 73 74 74 74 74 74 74 75 75 75 75 74 75 75 74 74 74 75 75 75 75 74 75 75 75 75 76 75 75 75 75 75 75 75 75 75 75 75 74 75 75 76 75 74 74 74 74 74 74 73 73 73 73 73
65 66 62 58 58 58 57 55 55 56 58 57 61 63 65 64 60 58 55 54 53 53 53 56 55 56 56 58 61 62 62 63 65 66 67 68 69 69 71 72 72 73 73 74 73 73 74 73 74 74 74 75 75 75 75 75 75 74 75 74 75 75 75 75 74 74 75 75 75 76 75 75 75 75 75 75 75 75 75 75 75 75 75 76 76 75 75 75 74 74 73 74 74 74 73 73 74
66 65 63 58 60 57 58 55 57 56 55 57 62 64 66 61 61 62 54 54 53 54 54 55 55 55 57 60 61 61 62 64 65 67 68 68 69 70 71 72 72 73 73 73 72 73 73 73 74 74 74 74 73 74 74 75 75 75 74 74 75 75 75 75 75 75 75 75 75 75 75 75 75 75 75 75 75 75 75 75 75 75 75 76 76 76 76 76 75 74 74 74 74 74 74 74 74
66 69 64 61 57 55 58 56 57 57 55 61 64 63 62 64 64 62 56 55 57 54 54 55 55 54 55 59 60 62 63 64 65 67 67 68 69 70 71 72 72 72 72 72 72 72 72 73 73 74 74 74 73 73 73 74 75 75 75 75 75 75 75 75 74 75 76 75 75 75 75 75 75 75 75 75 75 75 75 75 75 75 76 76 76 76 76 76 76 75 75 75 74 74 74 75 75
69 67 64 57 56 56 58 59 60 57 56 61 62 64 61 61 65 59 61 57 53 53 53 53 55 57 55 57 60 62 63 64 66 67 67 68 69 70 71 71 71 71 71 72 72 72 73 73 73 73 73 73 73 73 73 74 74 75 74 74 74 75 75 75 75 75 75 75 75 75 75 75 74 74 75 74 75 75 75 75 75 75 75 75 75 75 75 76 76 75 75 75 75 75 75 75 75
71 67 60 58 55 58 56 59 60 54 56 59 63 61 59 59 64 65 66 54 52 52 55 53 53 55 55 57 62 63 63 66 67 67 67 68 69 68 69 69 70 70 71 71 72 73 73 73 73 73 73 73 73 73 73 74 74 74 74 74 75 75 75 75 75 75 75 74 74 74 75 75 74 74 75 74 75 76 75 75 75 75 75 75 75 75 75 76 76 76 75 76 76 76 75 75 76
68 61 60 57 59 59 60 59 61 60 59 58 62 64 60 57 60 62 61 55 55 52 51 53 55 55 56 60 62 62 64 65 65 66 66 67 67 67 67 68 69 69 70 71 72 72 73 73 73 73 73 73 73 73 73 73 74 74 73 74 74 74 74 75 75 75 75 74 75 75 74 75 73 73 74 76 75 75 75 75 75 75 75 75 75 75 75 75 76 76 76 76 76 76 76 74 75
64 60 60 55 60 59 64 64 62 62 58 63 63 65 61 59 59 59 55 53 51 50 52 53 53 54 56 61 62 63 63 64 64 65 66 66 66 67 67 68 68 69 70 71 71 72 72 73 73 72 73 73 73 73 73 73 72 72 72 73 75 75 75 75 74 75 73 74 74 74 75 74 74 74 74 75 76 75 76 75 74 75 75 75 75 75 76 76 76 76 76 76 77 77 76 75 74
66 59 56 57 61 63 66 66 66 63 62 61 61 62 59 59 61 59 57 53 52 52 52 53 53 52 55 61 62 63 63 63 64 64 65 66 66 66 67 67 68 69 69 70 70 71 72 72 72 72 72 72 72 72 72 71 71 71 72 73 73 73 73 74 73 73 74 74 74 74 74 74 73 73 74 75 76 75 74 75 74 75 75 75 75 76 76 77 76 76 77 76 78 77 75 75 75
63 60 57 58 64 62 66 65 67 67 64 60 61 61 57 59 61 57 56 54 55 54 53 53 52 52 56 61 62 62 63 63 64 64 65 65 66 66 67 67 68 69 69 70 71 71 71 71 71 72 72 72 72 71 71 71 71 72 72 73 73 73 73 73 73 73 74 74 74 74 73 73 73 73 74 73 73 74 73 74 74 74 75 74 77 74 74 74 75 75 75 76 75 75 75 74 74
65 61 63 64 65 63 66 66 68 65 64 60 59 56 56 61 60 59 54 53 52 54 53 53 53 53 54 59 60 60 61 62 63 64 64 64 65 65 66 67 68 69 70 70 70 71 71 71 72 72 72 72 71 71 70 72 72 72 72 73 73 72 72 73 73 74 74 74 73 74 74 73 72 72 73 73 73 73 73 73 74 74 73 74 75 74 74 73 73 73 74 74 74 74 74 74 73
57 60 63 64 65 64 66 69 67 65 64 64 59 60 61 61 59 63 56 54 55 56 54 53 53 52 53 56 58 58 59 59 61 63 63 63 64 64 65 66 67 68 70 70 70 71 71 71 72 72 71 72 71 71 72 72 71 72 72 72 72 72 72 72 73 74 73 73 74 74 73 73 73 73 73 72 72 73 73 73 73 73 73 72 72 72 72 73 72 72 72 72 73 73 73 73 73
59 59 63 64 68 65 67 65 66 63 63 64 65 65 61 60 55 60 56 60 58 54 53 53 52 52 52 53 55 57 58 58 58 61 62 63 63 64 66 67 68 69 70 70 70 71 71 71 71 72 72 71 72 72 72 71 72 72 72 73 73 73 73 72 73 74 73 73 74 74 75 74 73 73 73 72 73 73 74 74 73 72 72 71 71 71 70 71 72 72 71 71 71 70 70 71 71
62 60 64 66 66 65 65 64 64 65 66 65 67 61 59 63 58 59 58 55 52 52 52 52 51 51 51 52 53 55 57 58 58 61 61 62 64 65 66 67 68 68 69 70 70 70 70 71 71 72 72 72 72 72 71 71 71 72 73 73 72 74 72 72 73 74 73 74 74 75 75 73 73 73 73 73 73 73 73 74 74 72 71 70 70 70 71 70 71 71 71 70 70 69 69 70 70
61 60 62 65 64 65 64 65 64 64 66 65 64 63 63 62 61 57 61 51 52 51 51 51 50 50 50 51 54 56 57 57 58 60 61 62 64 65 66 67 67 67 68 69 70 70 71 71 71 71 72 72 72 72 71 71 72 72 73 72 73 73 72 73 74 74 73 73 73 74 75 74 74 73 73 73 73 73 73 73 74 73 71 70 70 69 70 70 70 70 69 69 68 68 69 70 71
61 64 65 64 64 65 65 64 64 64 64 65 64 65 65 64 58 52 61 51 50 50 49 50 49 50 52 54 55 56 55 57 59 61 62 63 65 66 66 66 66 68 69 69 69 70 71 70 71 71 72 73 72 72 72 72 72 72 73 73 73 72 73 73 73 74 74 73 73 74 74 74 75 73 72 72 72 72 72 72 73 72 71 69 69 69 69 70 69 70 69 69 69 69 69 68 71
64 64 64 64 64 64 65 65 65 65 62 64 64 64 64 66 60 52 57 50 49 48 49 49 50 52 54 54 55 56 56 58 60 62 62 63 65 65 65 65 66 68 69 69 69 70 70 70 70 71 72 72 72 72 73 72 72 73 72 72 73 73 73 73 73 73 74 73 73 73 73 74 75 74 72 71 71 71 71 71 71 70 69 68 68 68 68 72 74 71 71 72 72 71 71 70 70
64 63 60 61 63 61 63 64 64 65 63 64 64 61 59 60 57 59 61 51 49 49 50 51 52 53 54 54 55 57 58 59 60 61 62 64 65 65 65 66 67 67 68 69 70 70 70 70 70 71 71 72 72 72 72 72 72 72 72 72 73 73 73 73 73 73 73 73 73 73 73 73 74 73 72 72 72 70 70 70 69 70 69 69 73 74 73 71 69 69 68 70 70 72 70 69 71
64 63 61 59 58 57 62 65 64 63 63 65 64 53 54 57 62 65 66 52 51 52 52 53 53 53 54 55 55 57 59 59 59 60 62 63 64 66 66 67 67 67 68 69 69 69 70 71 71 71 71 71 72 71 71 71 72 72 72 73 73 73 73 72 73 72 73 73 73 73 73 73 73 72 71 72 73 70 71 72 70 72 73 75 72 72 69 71 69 70 69 70 73 71 68 68 68
58 61 60 56 53 53 62 64 64 62 65 64 64 53 53 57 60 63 65 61 51 51 52 53 53 53 54 54 55 56 58 59 60 60 62 63 64 66 66 67 67 67 69 68 68 68 69 70 71 70 71 70 71 71 71 71 72 72 72 73 72 72 72 72 72 71 71 71 72 72 73 74 74 73 73 73 73 73 72 72 74 74 75 75 74 74 71 70 71 71 75 69 69 69 70 69 68
60 53 50 54 51 52 60 64 63 59 62 63 59 53 55 56 59 61 65 61 51 51 52 52 52 53 53 54 54 55 55 58 60 60 61 62 64 65 66 67 67 67 67 68 69 68 68 69 71 70 70 70 70 71 71 72 72 72 73 74 72 72 72 71 71 71 70 70 72 72 75 76 76 76 76 75 73 73 73 72 73 76 76 75 76 74 74 71 72 72 74 71 67 68 71 67 68
57 52 50 51 53 54 57 61 63 63 62 62 61 54 57 56 58 61 64 60 54 52 52 52 53 53 54 54 54 54 55 58 59 59 60 61 64 65 66 66 67 67 68 68 69 68 68 68 70 70 69 69 70 71 71 71 72 72 73 73 71 71 71 71 70 70 69 70 71 74 75 77 76 76 76 76 74 72 73 73 74 75 77 76 75 74 73 74 73 69 71 76 70 69 69 66 66
51 53 51 54 52 54 52 60 63 63 62 60 62 57 57 63 62 62 63 61 54 51 53 52 54 54 54 54 53 54 55 56 57 59 59 62 64 65 66 68 67 68 69 69 69 68 67 68 68 70 70 70 71 70 70 70 71 72 72 72 72 69 69 69 69 69 68 70 72 74 76 77 76 76 76 75 75 75 74 74 74 74 77 75 74 74 73 74 74 72 72 73 72 68 68 68 67
49 49 49 50 56 56 54 55 60 61 61 60 61 59 58 59 62 61 61 62 55 51 53 53 53 55 55 54 53 54 55 55 56 58 59 62 63 65 66 67 67 67 68 68 68 69 69 69 69 71 70 71 71 70 70 70 70 71 71 71 70 69 69 68 68 68 68 70 72 74 76 76 77 76 77 77 75 74 74 74 73 75 76 74 74 73 72 75 76 74 74 73 72 72 70 70 69
51 51 51 52 53 53 54 58 62 60 60 59 59 57 58 56 57 59 60 62 54 54 57 57 55 55 55 54 53 55 55 55 57 58 59 61 63 64 65 66 66 66 67 67 68 68 68 68 69 70 70 70 70 70 70 69 69 70 69 70 70 70 68 69 68 67 68 71 73 75 76 76 77 76 76 75 75 75 74 74 76 76 75 73 73 72 72 73 75 75 74 75 72 72 72 70 68
53 54 53 52 54 56 59 60 62 63 59 58 58 57 57 57 56 58 63 60 56 54 54 54 57 56 55 53 55 55 56 55 57 59 59 60 61 63 65 65 65 66 66 66 66 67 67 68 69 69 69 69 69 69 69 68 67 68 68 68 67 68 68 67 67 66 69 71 73 75 75 77 76 76 76 75 76 78 75 76 76 75 75 74 74 73 74 75 76 75 74 74 74 72 72 71 66
53 53 53 53 55 54 58 58 61 62 59 57 60 58 57 59 59 59 61 60 59 54 53 54 54 56 58 56 56 56 56 56 58 59 59 59 59 62 63 64 66 64 65 65 65 66 67 67 68 68 69 69 69 69 69 68 67 67 67 67 66 66 67 68 66 67 70 72 74 75 76 76 76 76 77 75 76 75 74 76 76 75 75 75 76 76 76 78 75 74 73 71 73 73 71 71 68
51 52 52 54 55 58 60 60 61 61 59 56 59 56 56 58 60 61 61 62 62 61 58 54 53 54 55 55 56 56 56 56 57 58 58 59 60 61 62 62 63 63 64 64 65 66 66 67 68 68 68 69 69 68 68 68 68 68 67 67 66 66 67 67 66 69 72 72 73 74 76 75 76 76 76 76 76 76 76 75 75 75 75 76 73 73 74 74 75 75 73 71 70 72 73 73 72
50 50 50 51 56 55 53 59 59 60 58 56 58 55 56 59 60 60 61 61 64 64 65 64 63 53 54 56 56 56 55 57 56 57 58 59 59 59 60 61 62 63 64 64 65 66 66 69 68 68 68 69 68 69 70 68 68 68 67 66 66 67 67 69 70 71 72 72 73 74 75 76 76 76 76 76 76 75 76 75 75 76 75 77 74 73 74 74 73 74 74 75 72 70 72 72 75
48 49 51 54 56 56 56 57 59 59 59 60 57 54 54 57 55 56 58 64 64 65 63 62 63 64 62 61 59 57 56 57 56 57 58 58 59 59 60 61 62 62 63 64 65 65 67 68 68 68 69 69 69 71 70 69 70 68 68 69 71 70 70 70 70 71 71 73 73 74 74 76 76 75 76 76 76 75 75 75 74 75 76 76 76 75 74 74 74 74 74 73 72 71 71 72 74
48 51 52 53 56 57 58 58 56 55 54 57 54 48 48 55 56 55 57 62 59 61 60 60 60 61 62 60 57 58 57 57 56 57 58 58 58 59 61 61 61 62 63 64 65 65 67 68 68 68 69 69 68 69 71 70 71 68 67 66 66 66 67 69 69 69 70 72 72 73 74 75 75 74 75 75 76 77 75 75 75 74 74 76 76 75 75 74 73 72 74 73 73 73 72 71 71
46 45 51 54 56 57 57 56 54 49 48 54 58 47 44 54 55 57 57 59 59 61 60 58 59 61 61 61 58 57 57 57 56 57 58 58 59 60 60 60 60 61 63 64 64 65 68 68 68 68 68 69 69 70 70 71 68 69 66 65 66 66 66 68 69 69 70 72 73 73 73 74 74 74 74 74 77 76 75 75 74 74 75 76 77 75 74 74 74 73 75 74 74 75 73 70 70
43 46 54 57 57 56 56 55 53 50 57 57 57 55 47 47 54 58 58 57 58 59 59 59 59 59 59 61 58 57 57 57 57 57 57 58 59 60 60 60 60 61 63 64 64 66 68 68 68 68 69 70 69 70 71 71 68 69 67 66 67 67 66 67 69 70 71 72 72 72 72 72 73 73 73 74 76 76 75 75 75 75 75 75 76 75 74 74 76 76 75 75 76 75 73 70 69
35 52 56 56 56 56 56 54 52 53 52 49 54 57 48 47 51 55 58 56 55 57 58 58 59 58 59 60 58 56 57 58 57 57 57 58 59 60 60 60 60 61 63 63 64 66 68 68 68 68 69 70 68 72 71 71 71 69 67 67 68 68 67 68 70 72 71 73 71 71 71 71 73 73 73 74 75 77 77 76 75 75 74 74 76 76 75 75 74 74 72 72 70 72 75 75 72
45 53 55 56 56 56 55 52 52 52 47 45 51 55 46 46 51 54 56 52 52 54 57 58 58 58 59 60 58 56 57 58 58 57 57 58 59 60 60 61 60 61 62 64 64 66 67 68 68 69 69 69 69 72 71 71 72 72 68 68 68 68 70 69 70 70 70 71 70 71 71 71 71 72 73 74 74 76 77 76 76 76 75 74 76 74 74 74 74 74 73 73 74 73 74 74 72
46 52 51 50 51 52 54 52 51 47 42 44 51 54 49 43 50 54 54 54 54 54 57 58 58 62 63 60 59 56 57 58 57 57 57 58 59 60 61 60 61 61 62 63 64 65 67 68 67 68 69 69 70 71 71 71 71 71 70 68 68 67 69 68 69 69 69 70 69 70 70 71 71 72 73 74 74 74 76 77 76 75 76 77 77 74 73 73 74 74 74 74 75 73 73 74 73
46 46 49 48 49 48 49 47 47 40 39 47 52 53 51 43 47 55 58 59 61 60 56 57 57 58 59 58 58 56 56 57 57 57 57 58 58 60 60 60 60 61 61 62 64 65 66 67 67 68 69 69 70 71 71 71 71 71 71 69 68 68 69 67 69 69 69 69 69 70 70 71 71 72 73 73 73 73 75 76 77 76 76 75 76 74 73 74 74 74 74 74 74 75 75 74 73
30 45 47 44 41 40 38 41 38 39 39 47 53 54 50 48 50 57 59 58 58 60 64 63 59 57 61 61 61 63 60 55 57 58 57 58 58 59 60 60 60 62 61 62 64 65 66 67 67 67 69 69 70 71 70 70 71 70 70 71 68 68 70 67 69 69 69 69 70 69 70 70 72 72 72 72 73 73 74 74 75 75 74 75 75 75 75 74 74 73 73 74 75 73 75 74 73
26 41 36 28 32 34 29 35 40 40 46 51 52 53 47 50 56 58 59 61 63 60 61 61 60 62 60 59 61 62 62 62 57 57 58 58 58 59 59 60 60 61 61 62 64 65 66 66 67 66 69 69 69 71 70 70 70 70 70 71 70 69 70 68 69 69 69 69 70 69 70 70 71 71 71 72 72 73 73 74 75 75 74 75 75 75 75 74 74 73 73 73 74 73 74 74 74
20 22 26 26 29 30 25 37 35 39 42 47 53 45 44 46 49 58 61 62 63 65 66 66 63 62 63 64 63 62 62 61 59 62 58 58 58 59 59 59 60 61 61 63 64 65 66 67 67 67 69 69 69 71 70 70 70 71 70 71 71 71 71 69 69 69 70 69 70 70 70 71 70 70 70 72 73 72 72 73 73 73 73 74 76 76 75 75 76 74 75 74 75 74 74 75 74
32 20 27 26 23 35 23 35 42 42 41 42 45 45 48 48 56 59 61 61 62 63 63 66 66 65 63 62 63 62 62 63 63 63 62 62 59 59 59 59 59 60 61 63 64 66 66 67 67 66 68 69 68 71 70 70 70 71 71 71 71 72 73 71 71 72 71 70 70 70 71 71 71 71 71 72 71 72 71 72 73 73 73 74 76 76 75 75 75 75 74 75 74 76 74 74 74
14 16 22 19 26 29 40 44 47 45 41 39 47 46 50 55 57 60 61 62 63 63 63 64 65 66 64 62 63 65 65 64 65 63 62 64 63 59 58 58 59 60 60 63 65 66 67 68 67 67 68 70 68 70 70 70 71 71 71 71 71 72 72 71 70 71 70 71 71 70 70 71 71 71 71 72 71 72 71 71 71 72 73 74 75 76 75 75 75 75 75 74 74 75 75 74 74
13 10 9 22 30 34 36 36 39 38 34 36 45 45 45 46 44 59 58 60 62 61 62 61 65 66 65 65 65 66 66 66 65 65 66 68 66 64 59 59 59 59 60 63 65 66 67 68 68 67 67 70 69 69 70 70 70 71 71 71 71 71 71 70 70 71 71 71 71 71 70 70 70 71 71 70 71 71 72 74 71 72 74 74 75 75 75 75 75 74 74 74 75 74 74 74 75
17 12 20 15 30 25 34 33 30 32 33 35 42 47 46 46 47 54 56 58 60 61 62 63 63 65 65 65 65 65 66 66 66 66 65 66 69 67 64 60 59 59 61 64 65 66 67 68 68 67 67 70 70 69 70 70 70 70 71 71 71 71 70 70 69 70 71 70 70 70 70 70 70 71 72 71 71 70 71 72 72 72 74 74 75 75 75 74 74 74 74 74 74 74 74 73 74
27 24 25 31 34 36 35 35 36 35 33 35 36 41 40 49 48 53 54 57 60 61 61 62 64 62 62 63 64 65 65 65 66 67 67 68 69 69 67 63 60 59 61 64 65 67 67 68 69 68 67 69 70 69 70 70 70 69 70 71 71 71 71 70 70 69 69 68 68 68 70 70 70 70 70 70 70 69 71 71 72 71 72 74 74 75 75 75 74 74 74 74 74 75 74 74 74
22 25 27 28 32 36 35 36 33 32 37 34 35 35 41 50 57 57 56 58 59 61 62 63 64 63 62 63 63 64 64 64 65 66 68 68 69 70 66 65 65 63 64 65 66 67 67 68 69 69 67 69 70 70 69 70 70 69 69 70 70 71 70 70 69 69 68 68 68 68 67 69 70 69 69 69 69 70 70 71 71 72 71 73 74 74 75 75 74 74 75 75 74 74 74 74 74
28 26 30 30 30 31 30 29 34 40 37 34 35 34 44 52 60 60 59 60 60 61 62 63 65 65 65 66 66 65 64 65 65 67 69 69 70 69 69 65 66 67 66 66 68 69 68 69 70 70 69 69 70 70 70 70 70 70 69 69 70 70 70 70 69 68 68 67 67 67 67 68 68 68 69 69 69 71 70 70 70 71 71 72 73 74 74 74 74 74 75 75 75 74 74 74 74